Regional Weather Roundup
Issued by NWS Newport/Morehead, NC

Home | Current Version | Previous Version | Text Only | Print | Product List | Glossary On
Versions: 1 2 3 4 5 6 7 8 9 10 11 12 13 14 15 16 17 18 19 20 21 22 23 24 25 26 27 28 29 30 31 32 33 34 35 36 37 38 39 40 41 42 43 44 45 46 47 48 49 50
000
ASUS42 KMHX 250325
RWRMHX
WEATHER ROUNDUP FOR EASTERN NORTH CAROLINA
NATIONAL WEATHER SERVICE NEWPORT/MOREHEAD CITY NC
1100 PM EDT SUN MAY 24 2015

NOTE: "FAIR" INDICATES FEW OR NO CLOUDS BELOW 12,000 FEET
WITH NO SIGNIFICANT WEATHER AND/OR OBSTRUCTIONS TO VISIBILITY

NCZ015>017-031-032-045>047-102-103-250400-
NORTH COAST

CITY           SKY/WX    TMP DP  RH WIND       PRES   REMARKS
EDENTON        CLEAR     69  59  71 S10       30.35S
ELIZABETH CITY CLEAR     67  57  70 S7        30.35S
KITTY HAWK     CLEAR     65  55  71 CALM      30.35S
MANTEO         CLEAR     66  56  70 SE6       30.36S

$$

NCZ045>047-081-094-103-104-250400-
CENTRAL COAST

CITY           SKY/WX    TMP DP  RH WIND       PRES   REMARKS
FRISCO         CLEAR     62  56  80 E3        30.36S
SWANQUARTER      N/A     66 N/A N/A SE5       30.33S

$$

NCZ095-097-098-100-101-250400-
SOUTHERN COAST

CITY           SKY/WX    TMP DP  RH WIND       PRES   REMARKS
BEAUFORT       CLEAR     71  59  65 SE6       30.36R
CEDAR ISLAND     N/A     70 N/A N/A SE5       30.39S
JACKSONVILLE   CLEAR     65  60  84 S3        30.35R
PINEY ISLAND   CLEAR    N/A N/A N/A SE7       30.36S
WILMINGTON     PTCLDY    67  60  78 CALM      30.35R


$$

NCZ011>013-027>030-043-044-078>080-089-090>093-098-250400-
COASTAL PLAIN

CITY           SKY/WX    TMP DP  RH WIND       PRES   REMARKS
AHOSKIE        CLEAR     65  55  70 S5        30.35R
CLINTON        CLEAR     67  59  75 CALM      30.36R
ELIZABETHTOWN  CLEAR     65  58  79 CALM      30.35S
GOLDSBORO      CLEAR     68  59  72 CALM      30.33R
GREENVILLE     PTCLDY    70  57  64 S7        30.35S
HAVELOCK       CLEAR     63  58  83 SE5       30.37R
KENANSVILLE    CLEAR     63  57  83 CALM      30.37R
KINSTON        CLEAR     68  58  71 S6        30.36R
NEW BERN       CLEAR     63  57  81 CALM      30.37R
RICHLANDS      CLEAR     61  55  82 CALM      30.36S
ROCKY MOUNT    CLEAR     70  56  61 S6        30.34R
WASHINGTON     CLEAR     68  58  69 S6        30.36S
WHITEVILLE     CLEAR     64  58  82 CALM      30.34S

$$

AMZ130-135-150-152-154-156-158-170-250-252-270-ANZ085-086-088-633-658-670-250400-
MARINE OBSERVATIONS

STATION/POSITION TIME  TEMP    WIND        PRES    WAVE   SWELL
                       AIR SEA DIR/SP/G            HT/PER HT/PER
                 (UTC) (F)     (DEG/KT/KT) (MB)    (FT/S) (FT/S)
CHESAPEAKE LIGHT 0300   67     180/ 18/ 19 1027.5
64 E VA BEACH    0250   64 62  160/  8/ 10 1027.6    1/ 7   2/ 7
DUCK             0300   66 62  160/  8/  9 1026.7
2 E DUCK         0211      64                N/A     1/ 7
OREGON INLET     0300   65 73  130/  5/  6 1028.0
13E OREGON INLT  0300      66                N/A     2/ 8
HATTERAS CG      0300   69 75   80/  3/  4 1027.6
DIAMOND BUOY     0250   74 77  110/  6/ 10 1028.2    2/ 6   2/ 6
CAPE LOOKOUT     0300   73     120/  9/ 10 1027.8
BEAUFORT LAB     0300   72 75  150/  6/  8 1027.2
27 SE WRIGHTSVLE 0300   71 77  140/ 10/ 12   N/A
5 SE WRIGHTSVLE  0208   75 76  150/  8/ 14 1027.4
225 S CAPE HAT   0250   72 74   90/ 16/ 17 1026.9    4/ 6   2/ 9
41 SE CHARLESTON 0250   75 75  110/ 16/ 17 1026.0    5/ 8   2/ 8

$$



USA.gov is the U.S. government's official web portal to all federal, state and local government web resources and services.